TimeCDT,TemperatureF,Dew PointF,Humidity,Sea Level PressureIn,VisibilityMPH,Wind Direction,Wind SpeedMPH,Gust SpeedMPH,PrecipitationIn,Events,Conditions,WindDirDegrees,DateUTC
12:13 AM,53.6,46.4,77,30.27,10.0,ENE,4.6,-,N/A,,Clear,60,2013-09-13 05:13:00
12:33 AM,51.8,46.4,82,30.26,10.0,NE,4.6,-,N/A,,Clear,50,2013-09-13 05:33:00
12:53 AM,51.8,46.4,82,30.26,10.0,NE,4.6,-,N/A,,Clear,50,2013-09-13 05:53:00
1:13 AM,51.8,46.4,82,30.26,10.0,ENE,4.6,-,N/A,,Clear,60,2013-09-13 06:13:00
1:33 AM,51.8,46.4,82,30.26,10.0,ENE,3.5,-,N/A,,Clear,70,2013-09-13 06:33:00
1:53 AM,51.8,46.4,82,30.27,10.0,ENE,4.6,-,N/A,,Clear,70,2013-09-13 06:53:00
2:13 AM,51.8,46.4,82,30.26,10.0,East,4.6,-,N/A,,Clear,80,2013-09-13 07:13:00
2:34 AM,48.2,46.4,93,30.26,10.0,ENE,4.6,-,N/A,,Clear,70,2013-09-13 07:34:00
2:53 AM,48.2,46.4,93,30.26,10.0,East,4.6,-,N/A,,Clear,80,2013-09-13 07:53:00
3:13 AM,48.2,46.4,93,30.25,10.0,East,5.8,-,N/A,,Clear,80,2013-09-13 08:13:00
3:33 AM,48.2,46.4,93,30.25,10.0,East,4.6,-,N/A,,Clear,90,2013-09-13 08:33:00
3:53 AM,48.2,46.4,93,30.25,10.0,East,5.8,-,N/A,,Clear,90,2013-09-13 08:53:00
4:13 AM,48.2,44.6,87,30.25,10.0,East,4.6,-,N/A,,Clear,90,2013-09-13 09:13:00
4:33 AM,46.4,44.6,93,30.25,10.0,East,4.6,-,N/A,,Clear,90,2013-09-13 09:33:00
4:53 AM,46.4,44.6,93,30.26,10.0,East,3.5,-,N/A,,Clear,90,2013-09-13 09:53:00
5:14 AM,46.4,44.6,93,30.26,10.0,Calm,Calm,-,N/A,,Clear,0,2013-09-13 10:14:00
5:33 AM,46.4,44.6,93,30.26,10.0,East,3.5,-,N/A,,Clear,80,2013-09-13 10:33:00
5:53 AM,46.4,44.6,93,30.26,10.0,Calm,Calm,-,N/A,,Clear,0,2013-09-13 10:53:00
6:13 AM,46.4,44.6,93,30.27,10.0,Calm,Calm,-,N/A,,Clear,0,2013-09-13 11:13:00
6:33 AM,46.4,44.6,93,30.26,10.0,Calm,Calm,-,N/A,,Clear,0,2013-09-13 11:33:00
6:54 AM,46.4,44.6,93,30.27,10.0,ESE,3.5,-,N/A,,Clear,110,2013-09-13 11:54:00
7:13 AM,46.4,44.6,93,30.27,10.0,Calm,Calm,-,N/A,,Clear,0,2013-09-13 12:13:00
7:33 AM,46.4,44.6,93,30.27,10.0,Calm,Calm,-,N/A,,Clear,0,2013-09-13 12:33:00
7:53 AM,48.2,44.6,87,30.27,10.0,Calm,Calm,-,N/A,,Clear,0,2013-09-13 12:53:00
8:13 AM,48.2,46.4,93,30.27,10.0,Calm,Calm,-,N/A,,Clear,0,2013-09-13 13:13:00
8:34 AM,51.8,46.4,82,30.27,10.0,SE,3.5,-,N/A,,Clear,140,2013-09-13 13:34:00
8:53 AM,53.6,48.2,82,30.27,10.0,SSE,5.8,-,N/A,,Clear,150,2013-09-13 13:53:00
9:13 AM,55.4,48.2,77,30.27,10.0,South,6.9,-,N/A,,Clear,170,2013-09-13 14:13:00
9:33 AM,57.2,46.4,67,30.27,10.0,South,5.8,-,N/A,,Clear,170,2013-09-13 14:33:00
9:53 AM,60.8,46.4,59,30.27,10.0,SSE,9.2,-,N/A,,Clear,150,2013-09-13 14:53:00
10:13 AM,62.6,44.6,52,30.28,10.0,SSE,9.2,-,N/A,,Clear,160,2013-09-13 15:13:00
10:33 AM,62.6,44.6,52,30.27,10.0,South,6.9,-,N/A,,Clear,180,2013-09-13 15:33:00
10:53 AM,62.6,44.6,52,30.27,10.0,SSE,9.2,-,N/A,,Clear,160,2013-09-13 15:53:00
11:14 AM,64.4,44.6,49,30.27,10.0,South,9.2,-,N/A,,Clear,170,2013-09-13 16:14:00
11:33 AM,66.2,44.6,46,30.26,10.0,SSE,6.9,-,N/A,,Clear,160,2013-09-13 16:33:00
11:53 AM,66.2,44.6,46,30.25,10.0,SSE,9.2,-,N/A,,Clear,150,2013-09-13 16:53:00
12:13 PM,66.2,44.6,46,30.25,10.0,SSE,10.4,-,N/A,,Clear,150,2013-09-13 17:13:00
12:33 PM,66.2,44.6,46,30.24,10.0,South,6.9,-,N/A,,Clear,190,2013-09-13 17:33:00
12:53 PM,68.0,44.6,43,30.23,10.0,South,9.2,-,N/A,,Clear,180,2013-09-13 17:53:00
1:13 PM,68.0,44.6,43,30.22,10.0,SE,5.8,-,N/A,,Clear,140,2013-09-13 18:13:00
1:33 PM,69.8,44.6,40,30.21,10.0,SE,5.8,-,N/A,,Clear,130,2013-09-13 18:33:00
1:53 PM,69.8,44.6,40,30.20,10.0,SE,8.1,-,N/A,,Clear,140,2013-09-13 18:53:00
2:13 PM,69.8,44.6,40,30.19,10.0,SSE,10.4,-,N/A,,Clear,160,2013-09-13 19:13:00
2:33 PM,71.6,44.6,38,30.19,10.0,SE,5.8,-,N/A,,Clear,140,2013-09-13 19:33:00
2:53 PM,69.8,44.6,40,30.18,10.0,South,9.2,-,N/A,,Clear,170,2013-09-13 19:53:00
3:14 PM,69.8,44.6,40,30.17,10.0,SSE,6.9,-,N/A,,Clear,160,2013-09-13 20:14:00
3:33 PM,71.6,44.6,38,30.16,10.0,SSE,6.9,-,N/A,,Clear,150,2013-09-13 20:33:00
3:53 PM,71.6,44.6,38,30.15,10.0,SSE,9.2,-,N/A,,Clear,160,2013-09-13 20:53:00
4:13 PM,71.6,44.6,38,30.15,10.0,SE,9.2,-,N/A,,Clear,130,2013-09-13 21:13:00
4:33 PM,71.6,44.6,38,30.14,10.0,South,10.4,-,N/A,,Clear,170,2013-09-13 21:33:00
4:53 PM,71.6,44.6,38,30.14,10.0,South,12.7,-,N/A,,Clear,180,2013-09-13 21:53:00
5:13 PM,71.6,44.6,38,30.13,10.0,South,5.8,10.4,N/A,,Clear,170,2013-09-13 22:13:00
5:33 PM,69.8,44.6,40,30.13,10.0,South,12.7,-,N/A,,Clear,180,2013-09-13 22:33:00
5:53 PM,69.8,44.6,40,30.12,10.0,South,11.5,-,N/A,,Clear,180,2013-09-13 22:53:00
6:13 PM,69.8,44.6,40,30.12,10.0,South,11.5,-,N/A,,Clear,190,2013-09-13 23:13:00
6:33 PM,68.0,44.6,43,30.10,10.0,South,8.1,-,N/A,,Clear,180,2013-09-13 23:33:00
6:53 PM,66.2,44.6,46,30.10,10.0,SSE,5.8,-,N/A,,Clear,160,2013-09-13 23:53:00
7:13 PM,64.4,46.4,52,30.10,10.0,South,5.8,-,N/A,,Clear,180,2013-09-14 00:13:00
7:33 PM,60.8,46.4,59,30.09,10.0,SSE,6.9,-,N/A,,Clear,150,2013-09-14 00:33:00
7:53 PM,59.0,46.4,63,30.09,10.0,SSE,6.9,-,N/A,,Clear,150,2013-09-14 00:53:00
8:13 PM,59.0,46.4,63,30.09,10.0,SE,5.8,-,N/A,,Clear,130,2013-09-14 01:13:00
8:33 PM,55.4,46.4,72,30.09,10.0,SE,4.6,-,N/A,,Clear,130,2013-09-14 01:33:00
8:54 PM,55.4,46.4,72,30.08,10.0,SE,5.8,-,N/A,,Clear,130,2013-09-14 01:54:00
9:13 PM,55.4,46.4,72,30.09,10.0,ESE,5.8,-,N/A,,Clear,120,2013-09-14 02:13:00
9:33 PM,53.6,46.4,77,30.08,10.0,SE,6.9,-,N/A,,Clear,130,2013-09-14 02:33:00
9:53 PM,55.4,46.4,72,30.07,10.0,SE,6.9,-,N/A,,Clear,130,2013-09-14 02:53:00
10:13 PM,53.6,46.4,77,30.07,10.0,SE,5.8,-,N/A,,Clear,140,2013-09-14 03:13:00
10:34 PM,53.6,46.4,77,30.06,10.0,SE,5.8,-,N/A,,Clear,140,2013-09-14 03:34:00
10:53 PM,51.8,46.4,82,30.06,10.0,SE,6.9,-,N/A,,Clear,140,2013-09-14 03:53:00
11:13 PM,51.8,46.4,82,30.06,10.0,SE,8.1,-,N/A,,Clear,140,2013-09-14 04:13:00
11:33 PM,50.0,46.4,87,30.06,10.0,SE,6.9,-,N/A,,Clear,140,2013-09-14 04:33:00
11:53 PM,50.0,46.4,87,30.06,10.0,SSE,5.8,-,N/A,,Clear,160,2013-09-14 04:53:00